VK3GY-13 Weather Reports


Display with metric or nautical units.
time (UTC)temp
F
wind
direction
speed
MPH
gust
MPH
rain 1hr
in
rain 24hr
in
rain mn
in
humidity
%
barometer
mb
20260504035009 66 330 7.0 20.0 0.00 0.07 0.01 56 1008.0
20260504034009 66 339 10.0 21.0 0.00 0.07 0.01 55 1008.0
20260504033009 66 333 11.0 20.0 0.00 0.07 0.01 55 1008.1
20260504032009 67 331 12.0 21.0 0.00 0.07 0.01 54 1008.2
20260504031009 67 337 10.0 21.0 0.00 0.07 0.01 57 1008.3
20260504030009 66 333 9.0 21.0 0.00 0.07 0.01 58 1008.5
20260504025009 65 346 12.0 23.0 0.00 0.07 0.01 59 1008.7
20260504024009 66 321 12.0 22.0 0.00 0.07 0.01 57 1008.6
20260504023009 66 336 6.0 25.0 0.00 0.07 0.01 58 1008.9
20260504022009 66 327 10.0 23.0 0.00 0.08 0.01 58 1008.9
20260504021010 67 321 7.0 21.0 0.01 0.09 0.01 59 1009.0
20260504020009 66 325 9.0 23.0 0.01 0.15 0.01 60 1009.1
20260504015009 66 342 10.0 21.0 0.01 0.19 0.01 60 1009.1
20260504014009 66 347 11.0 23.0 0.01 0.24 0.01 60 1009.3
20260504013009 66 339 11.0 23.0 0.01 0.27 0.01 60 1009.5
20260504012009 66 339 10.0 25.0 0.01 0.30 0.01 61 1009.6
20260504011009 65 323 10.0 17.0 0.00 0.29 0.00 62 1009.8
20260504010009 65 343 12.0 20.0 0.00 0.30 0.00 62 1009.8
20260504005009 65 342 12.0 20.0 0.00 0.33 0.00 62 1009.9
20260504004009 64 346 10.0 18.0 0.00 0.34 0.00 63 1009.9
20260504003009 64 328 9.0 18.0 0.00 0.34 0.00 63 1009.9
20260504002009 64 315 11.0 20.0 0.00 0.34 0.00 62 1010.0
20260504001009 64 348 8.0 16.0 0.00 0.34 0.00 63 1010.0
20260504000009 64 0 7.0 16.0 0.00 0.34 0.00 65 1009.9
20260503235009 63 355 8.0 17.0 0.00 0.34 0.00 66 1010.0
20260503234009 63 19 5.0 12.0 0.00 0.34 0.00 67 1010.2
20260503233009 62 29 5.0 9.0 0.00 0.34 0.00 70 1010.2
20260503232011 61 28 4.0 8.0 0.00 0.34 0.00 71 1010.3
20260503231009 60 15 3.0 5.0 0.00 0.34 0.00 72 1010.3
20260503230009 59 7 3.0 7.0 0.00 0.34 0.00 74 1010.4
20260503225009 58 5 3.0 6.0 0.00 0.34 0.00 76 1010.5
20260503224009 57 5 3.0 6.0 0.00 0.34 0.00 79 1010.5
20260503223009 56 21 3.0 7.0 0.00 0.34 0.00 81 1010.5
20260503222009 54 17 3.0 7.0 0.00 0.34 0.00 83 1010.6
20260503221009 53 24 3.0 8.0 0.00 0.34 0.00 85 1010.6
20260503220009 53 16 3.0 8.0 0.00 0.34 0.00 85 1010.6
20260503215009 52 16 2.0 3.0 0.00 0.34 0.00 85 1010.5
20260503214009 52 16 2.0 7.0 0.00 0.34 0.00 86 1010.4
20260503213009 52 17 3.0 7.0 0.00 0.34 0.00 86 1010.4
20260503212009 51 18 3.0 7.0 0.00 0.34 0.00 86 1010.4
20260503211009 51 14 2.0 5.0 0.00 0.34 0.00 86 1010.4
20260503210009 51 13 2.0 5.0 0.00 0.34 0.00 86 1010.4
20260503205009 51 15 2.0 5.0 0.00 0.34 0.00 85 1010.2
20260503204009 52 19 2.0 5.0 0.00 0.34 0.00 85 1010.0
20260503203009 52 18 3.0 5.0 0.00 0.34 0.00 85 1010.0
20260503202009 53 17 3.0 5.0 0.00 0.34 0.00 84 1009.9
20260503201009 53 16 3.0 7.0 0.00 0.34 0.00 84 1010.0
20260503200009 54 9 3.0 8.0 0.00 0.34 0.00 84 1010.0
20260503195009 54 11 6.0 10.0 0.00 0.34 0.00 85 1010.0
20260503194009 54 5 4.0 9.0 0.00 0.34 0.00 85 1010.1
20260503193009 54 0 4.0 9.0 0.00 0.34 0.00 85 1010.2
20260503192009 54 354 3.0 8.0 0.00 0.34 0.00 84 1010.3
20260503191009 55 349 3.0 6.0 0.00 0.34 0.00 84 1010.4
20260503190009 55 352 4.0 8.0 0.00 0.34 0.00 84 1010.5
20260503185009 55 354 4.0 9.0 0.00 0.34 0.00 84 1010.5
20260503184009 55 0 6.0 10.0 0.00 0.34 0.00 84 1010.5
20260503183009 55 358 6.0 12.0 0.00 0.34 0.00 84 1010.6
20260503182009 55 0 5.0 9.0 0.00 0.34 0.00 84 1010.7
20260503181010 55 341 4.0 8.0 0.00 0.34 0.00 84 1010.8
20260503180009 55 350 5.0 10.0 0.00 0.34 0.00 84 1010.9
20260503175010 55 358 4.0 9.0 0.00 0.34 0.00 84 1010.9
20260503174009 55 350 5.0 10.0 0.00 0.34 0.00 84 1010.8
20260503173009 55 350 4.0 10.0 0.00 0.34 0.00 84 1010.9
20260503172010 55 356 4.0 9.0 0.00 0.34 0.00 84 1010.9
20260503171009 55 359 3.0 9.0 0.00 0.34 0.00 85 1010.9
20260503151010 56 28 2.0 5.0 0.00 0.34 0.00 84 1011.2
20260503131009 57 11 2.0 5.0 0.00 0.34 0.34 83 1011.5
20260503081009 61 335 2.0 10.0 0.00 0.34 0.34 85 1010.1
20260503072009 63 358 2.0 7.0 0.00 0.34 0.34 87 1009.7
20260503071009 62 316 3.0 5.0 0.00 0.34 0.34 88 1009.4
20260503055009 64 270 6.0 10.0 0.03 0.31 0.31 86 1009.4
20260503054009 66 245 6.0 12.0 0.01 0.29 0.29 82 1009.2
20260503053009 68 298 8.0 12.0 0.01 0.29 0.29 80 1009.0
20260503052009 68 312 7.0 12.0 0.01 0.29 0.29 81 1008.8
20260503051009 68 339 9.0 15.0 0.01 0.29 0.29 80 1008.8
20260503050008 68 354 5.0 12.0 0.00 0.28 0.28 80 1008.8
20260503045009 68 355 5.0 12.0 0.00 0.28 0.28 79 1008.8
20260503044009 69 358 6.0 10.0 0.00 0.28 0.28 80 1008.6
20260503043009 68 357 5.0 13.0 0.00 0.28 0.28 80 1008.7
20260503042009 68 354 7.0 12.0 0.00 0.28 0.28 83 1008.6
20260503041009 67 354 5.0 12.0 0.00 0.28 0.28 86 1008.8
20260503040009 65 15 2.0 8.0 0.00 0.28 0.28 87 1008.8